軌道要素
Epoch 2016 Feb. 22.0 TT = JDT 2457440.5
T 2016 Feb. 16.40123 TT Rudenko
q 8.4593930 (2000.0) P Q
z -0.0005820 Peri. 328.57043 -0.86189018 -0.50643719
+/-0.0000012 Node 181.78102 +0.41415194 -0.73238720
e 1.0049235 Incl. 56.17871 -0.29261490 +0.45511577
From 218 observations 2016 Feb. 12-2020 May 24, mean residual 0".5.
|